Regional Weather Roundup
Issued by NWS

Home | Current Version | Previous Version | Graphics & Text | Print | Product List | Glossary On
Versions: 1 2 3 4 5 6 7 8 9 10 11 12 13 14 15 16 17 18 19 20 21 22 23 24 25 26 27 28 29 30 31 32 33 34 35 36 37 38 39 40 41 42 43 44 45 46 47 48 49 50
943
ASUS45 KCYS 090510
RWRWY

WYOMING REGIONAL WEATHER ROUNDUP
NATIONAL WEATHER SERVICE CHEYENNE WY
1000 PM MST MON FEB 08 2016

NOTE:  "FAIR" INDICATES FEW OR NO CLOUDS BELOW 12,000 FEET
WITH NO SIGNIFICANT WEATHER AND/OR OBSTRUCTIONS TO VISIBILITY.

WYZ001-090600-
YELLOWSTONE NATIONAL PARK

CITY           SKY/WX    TMP DP  RH WIND       PRES   REMARKS
LK YELLOWSTONE   N/A     17  14  88 SE5       30.57S WCI  10
W YELLOWSTONE  NOT AVBL

$$
WYZ002>013-054>058-071-098>099-090600-
NORTHERN WYOMING

CITY           SKY/WX    TMP DP  RH WIND       PRES   REMARKS
JACKSON        FAIR      10   9  92 N3        30.58R
CODY           FAIR      27  16  63 SW3       30.34S
GREYBULL       FAIR      27  20  75 CALM      30.37S
WORLAND        FAIR      28  22  78 S3        30.37S
SHERIDAN       CLEAR     43  27  52 CALM      30.28F
BUFFALO        FAIR      46  25  43 N5        30.29S
GILLETTE       CLOUDY    36  27  69 W14       30.26S WCI  27
HULETT         CLOUDY    37  27  65 NW5       30.26S WCI  34
NEWCASTLE      FAIR      28  21  74 NW8       30.24F WCI  20

$$
WYZ014>020-022>026-101>103-090600-
CENTRAL WYOMING

CITY           SKY/WX    TMP DP  RH WIND       PRES   REMARKS
BIG PINEY      FAIR      27  21  78 N13       30.49S WCI  16
PINEDALE       FAIR      32  23  69 NW22      30.48S WCI  19
DUBOIS         FAIR      37  19  48 W31G43    30.42S WCI  25
LANDER         FAIR      27  20  75 CALM      30.38F
RIVERTON       FAIR      22  15  75 W7        30.40S WCI  13
CASPER         FAIR      30  20  66 SW21      30.35F WCI  17
DOUGLAS        FAIR      32  23  69 NW14        N/A  WCI  22

$$
WYZ021-027>030-104>119-090600-
SOUTHERN WYOMING

CITY           SKY/WX    TMP DP  RH WIND       PRES   REMARKS
EVANSTON       FAIR      26  16  65 SW7       30.58R WCI  18
KEMMERER       FAIR      27  23  86 W10       30.53  WCI  17
FORT BRIDGER   CLEAR     32  25  74 W21       30.57S WCI  20
ROCK SPRINGS   FAIR      29  22  75 W20       30.48S WCI  16
DIXON          FAIR      11   9  90 CALM      30.54S
RAWLINS        FAIR      27  18  69 SW13G20   30.43F WCI  16
SARATOGA       FAIR      18  16  93 CALM      30.46S
LARAMIE        FAIR      26  17  68 S5        30.36S WCI  20
CHEYENNE       FAIR      36  20  52 NW23G29   30.30F WCI  24
TORRINGTON     FAIR      34  25  69 W12       30.27S WCI  25
PINE BLUFFS    FAIR      36  27  69 NW21G26   30.29R WCI  24

$$




USA.gov is the U.S. government's official web portal to all federal, state and local government web resources and services.